Weather History for KRAP - February, 2014

Change the Weather History Date:

Saturday, February 8, 2014

  Actual Average Record
Temperature  
Mean Temperature 9 °F 26 °F  
Max Temperature 18 °F 38 °F 74 °F (1954)
Min Temperature 0 °F 14 °F -23 °F (1994)
Degree Days  
Heating Degree Days 56 39  
Month to date heating degree days 485 313  
Since 1 July heating degree days 4830 4469  
Cooling Degree Days 0 0  
Month to date cooling degree days 0 0  
Year to date cooling degree days 0 0  
Moisture  
Dew Point 6 °F    
Average Humidity 80    
Maximum Humidity 87    
Minimum Humidity 73    
Precipitation  
Precipitation 0.01 in 0.01 in 0.55 in (1966)
Month to date precipitation 0.10 0.09  
Year to date precipitation 0.30 0.39  
Snow  
Snow 0.90 in 0.20 in 6.40 in (1971)
Month to date snowfall 2.9 1.3  
Since 1 July snowfall 39.5 18.9  
Snow Depth 1.00 in    
Sea Level Pressure  
Sea Level Pressure 30.11 in    
Wind  
Wind Speed 13 mph (NNW)    
Max Wind Speed 28 mph    
Max Gust Speed 33 mph    
Visibility 7 miles    
Events Snow    
T = Trace of Precipitation, MM = Missing Value Source: NWS Daily Summary

Daily Weather History Graph

Daily Weather History Graph

Search for Another Location

Airport or City:

Trip Planner

Search our weather history database for the weather conditions in past years. The results will help you decide how hot, cold, wet, or windy it might be!

Date:

Astronomy

Feb. 08, 2014 Rise Set
Actual Time 7:01 AM MST 5:12 PM MST
Civil Twilight 6:30 AM MST 5:42 PM MST
Nautical Twilight 5:56 AM MST 6:16 PM MST
Astronomical Twilight 5:23 AM MST 6:50 PM MST
Moon 12:04 PM MST (2/8) 2:18 AM MST (2/8)
Length of Visible Light 11h 11m
Length of Day
10h 11m
Waxing Gibbous, 69% of the Moon is Illuminated
Feb 8
Waxing Gibbous
Feb 14
Full
Feb 22
Last Quarter
Mar 1
New
Mar 8
First Quarter

Hourly Weather History & Observations

Time (MST) Temp. Windchill Dew Point Humidity Pressure Visibility Wind Dir Wind Speed Gust Speed Precip Events Conditions
12:52 AM 5.0 °F -8.1 °F -0.0 °F 80% 30.02 in 10.0 mi WNW 8.1 mph - N/A   Clear
1:52 AM 3.0 °F -11.5 °F -2.0 °F 80% 30.02 in 10.0 mi NW 9.2 mph - N/A   Clear
2:52 AM -0.0 °F - -4.0 °F 83% 30.04 in 10.0 mi Calm Calm - N/A   Clear
3:52 AM 1.0 °F - -2.0 °F 87% 30.05 in 10.0 mi Calm Calm - N/A   Clear
4:40 AM 3.2 °F - -0.4 °F 85% 29.86 in 10.0 mi Calm Calm - N/A   Mostly Cloudy
4:52 AM 5.0 °F - 1.0 °F 84% 30.05 in 10.0 mi Calm Calm - N/A   Overcast
5:52 AM 8.1 °F - 3.9 °F 83% 30.05 in 10.0 mi Calm Calm - N/A   Overcast
6:52 AM 10.9 °F 0.2 °F 6.1 °F 81% 30.06 in 10.0 mi North 6.9 mph - N/A   Overcast
7:18 AM 10.4 °F 0.8 °F 6.8 °F 85% 29.86 in 10.0 mi NNE 5.8 mph - N/A   Overcast
7:52 AM 9.0 °F 0.6 °F 5.0 °F 84% 30.06 in 10.0 mi West 4.6 mph - N/A   Mostly Cloudy
8:27 AM 10.4 °F 2.2 °F 6.8 °F 85% 29.89 in 10.0 mi West 4.6 mph - N/A   Overcast
8:52 AM 12.9 °F 5.2 °F 9.0 °F 84% 30.08 in 10.0 mi NW 4.6 mph - N/A   Overcast
9:01 AM 15.8 °F 8.6 °F 10.4 °F 79% 29.91 in 10.0 mi NW 4.6 mph - N/A   Overcast
9:52 AM 16.0 °F 2.3 °F 10.9 °F 81% 30.09 in 10.0 mi North 12.7 mph - N/A   Overcast
10:52 AM 17.1 °F 3.6 °F 12.0 °F 81% 30.12 in 10.0 mi North 12.7 mph - N/A   Overcast
11:52 AM 18.0 °F 3.6 °F 12.0 °F 78% 30.11 in 4.0 mi North 15.0 mph - 0.00 in Snow Light Snow
12:15 PM 17.6 °F 4.3 °F 12.2 °F 79% 29.94 in 1.8 mi North 12.7 mph - 0.00 in Snow Light Snow
12:23 PM 17.6 °F 4.3 °F 12.2 °F 79% 29.94 in 1.2 mi North 12.7 mph - 0.00 in Snow Light Snow
12:36 PM 17.6 °F 4.3 °F 12.2 °F 79% 29.94 in 2.0 mi North 12.7 mph - 0.01 in Snow Light Snow
12:52 PM 17.1 °F 2.0 °F 10.9 °F 77% 30.14 in 4.0 mi North 16.1 mph - 0.01 in Snow Light Snow
1:13 PM 15.8 °F 0.3 °F 10.4 °F 79% 29.95 in 1.8 mi North 16.1 mph - 0.00 in Snow Light Snow
1:52 PM 17.1 °F 1.0 °F 10.9 °F 77% 30.15 in 1.8 mi North 18.4 mph 23.0 mph 0.00 in Snow Light Snow
2:01 PM 15.8 °F 1.4 °F 10.4 °F 79% 29.96 in 2.5 mi North 13.8 mph - 0.00 in Snow Light Snow
2:08 PM 15.8 °F 0.9 °F 10.4 °F 79% 29.96 in 3.0 mi North 15.0 mph - 0.00 in Snow Light Snow
2:15 PM 15.8 °F 2.7 °F 10.4 °F 79% 29.97 in 1.8 mi North 11.5 mph 21.9 mph 0.00 in Snow Light Snow
2:40 PM 17.6 °F 3.2 °F 10.4 °F 73% 29.98 in 2.5 mi North 15.0 mph - 0.00 in Snow Light Snow
2:52 PM 16.0 °F 2.3 °F 10.0 °F 77% 30.20 in 2.5 mi North 12.7 mph - 0.00 in Snow Light Snow
3:00 PM 15.8 °F 0.9 °F 10.4 °F 79% 30.00 in 6.0 mi North 15.0 mph 20.7 mph 0.00 in Snow Light Snow
3:52 PM 14.0 °F -3.9 °F 6.1 °F 71% 30.23 in 6.0 mi North 20.7 mph 28.8 mph 0.00 in   Haze
4:52 PM 10.9 °F -8.8 °F 3.0 °F 70% 30.26 in 9.0 mi North 23.0 mph 31.1 mph 0.00 in   Overcast
5:52 PM 9.0 °F -11.4 °F 3.0 °F 77% 30.31 in 4.0 mi NNW 23.0 mph 33.4 mph 0.00 in Snow Blowing Snow
6:52 PM 9.0 °F -10.0 °F 1.9 °F 73% 30.33 in 10.0 mi NNW 19.6 mph - N/A   Overcast
7:52 PM 8.1 °F -11.7 °F 1.9 °F 76% 30.36 in 10.0 mi North 20.7 mph - N/A   Overcast
8:52 PM 7.0 °F -12.1 °F -0.0 °F 73% 30.38 in 10.0 mi North 18.4 mph - N/A   Overcast
9:52 PM 7.0 °F -13.1 °F -0.0 °F 73% 30.39 in 2.5 mi North 20.7 mph - 0.00 in Snow Light Snow
10:52 PM 5.0 °F -16.2 °F -0.9 °F 76% 30.38 in 4.0 mi North 21.9 mph - 0.00 in Snow Light Snow
11:52 PM 3.9 °F -16.1 °F -2.0 °F 76% 30.39 in 4.0 mi North 18.4 mph - 0.00 in Snow Light Snow